View from above orbital plane
|
View from above satellite
|
Ground track
|
The orbit data is extracted from the following two-line orbital elements,
1 12785U 81082A 21017.80646259 .00000437 00000-0 19942-4 0 9996
2 12785 82.5018 216.3283 0002178 56.2728 314.1853 15.17918428150368
Epoch (UTC): | 17 January 2021 19:21:18 |
Eccentricity: | 0.0002178 |
inclination: | 82.5018° |
perigee height: | 510 km |
apogee height: | 513 km |
right ascension of ascending node: | 216.3283° |
argument of perigee: | 56.2728° |
revolutions per day: | 15.17918428 |
mean anomaly at epoch: | 314.1853° |
orbit number at epoch: | 15036 |
The dashed part of the orbit path shows where the satellite is in the earth's shadow,
|
|